Regional Weather Roundup
Issued by NWS

Home | Current Version | Previous Version | Text Only | Print | Product List | Glossary On
Versions: 1 2 3 4 5 6 7 8 9 10 11 12 13 14 15 16 17 18 19 20 21 22 23 24 25 26 27 28 29 30 31 32 33 34 35 36 37 38 39 40 41 42 43 44 45 46 47 48 49 50
000
ASUS43 KLMK 231910
RWRKY
KENTUCKY REGIONAL WEATHER ROUNDUP
NATIONAL WEATHER SERVICE LOUISVILLE KY
300 PM EDT SUN APR 23 2017

NOTE "FAIR" INDICATES FEW OR NO CLOUDS BELOW 12,000 FEET
WITH NO SIGNIFICANT WEATHER AND/OR OBSTRUCTIONS TO VISIBILITY.

KYZ001>023-026-027-061>063-070>075-232000-
WESTERN AND SOUTH CENTRAL KENTUCKY

CITY           SKY/WX    TMP DP  RH WIND       PRES   REMARKS
PADUCAH        MOSUNNY   66  42  41 NE16G30   29.91F
HENDERSON      MOSUNNY   69  41  36 NE14G20   29.93
OWENSBORO      CLOUDY    65  39  38 NE18G30   29.91F
HOPKINSVILLE   LGT RAIN  52  47  84 N17       29.89F
BOWLING GREEN  CLOUDY    54  50  86 N8        29.89F
GLASGOW        DRIZZLE  N/A N/A N/A NE15G22   29.87F
$$

KYZ024-025-028>034-038-045-046-053-232000-
NORTH CENTRAL KENTUCKY

CITY           SKY/WX    TMP DP  RH WIND       PRES   REMARKS
LOUISVILLE/SDF PTSUNNY   61  39  44 NE15G29   29.94F
LOUISVILLE/LOU PTSUNNY   61  38  42 NE15G23   29.95F
FORT KNOX      DRIZZLE   56  47  71 NE12      29.91F
$$

KYZ035>037-039>044-047>052-055>060-089>105-232000-
NORTHEAST KENTUCKY

CITY           SKY/WX    TMP DP  RH WIND       PRES   REMARKS
LEXINGTON      LGT RAIN  53  45  74 NE18G25   29.95S
COVINGTON      PTSUNNY   61  36  39 NE17      29.98S
FRANKFORT      LGT RAIN  56  44  64 NE5       29.95S
$$

KYZ054-064>069-076>088-106>120-232000-
SOUTHEAST KENTUCKY

CITY           SKY/WX    TMP DP  RH WIND       PRES   REMARKS
JACKSON        LGT RAIN  50  49  96 VRB6      29.92F FOG
LONDON         LGT RAIN  52  50  93 N9        29.87S
SOMERSET       RAIN      48  48 100 N9        29.90F
MIDDLESBORO    HVY RAIN  55  55  98 CALM      29.84F
MONTICELLO     LGT RAIN  50  49  96 N21G26    29.90S
$$




USA.gov is the U.S. government's official web portal to all federal, state and local government web resources and services.